Regional Weather Roundup
Issued by NWS Goodland, KS

Home | Current Version | Previous Version | Text Only | Print | Product List | Glossary Off
Versions: 1 2 3 4 5 6 7 8 9 10 11 12 13 14 15 16 17 18 19 20 21 22 23 24 25 26 27 28 29 30 31 32 33 34 35 36 37 38 39 40 41 42 43 44 45 46 47 48 49 50

000
ASUS43 KGLD 200908
RWRGLD

GOODLAND FORECAST AREA HOURLY WEATHER ROUNDUP
NATIONAL WEATHER SERVICE GOODLAND KS
200 AM MST MON FEB 20 2017

...OFFICIAL OBSERVATIONS...

CITY           SKY/WX    TMP DP  RH WIND       PRES   REMARKS
GOODLAND KS    CLOUDY    48  33  56 W18       29.71R
HILL CITY KS   CLOUDY    54  50  86 S5        29.69R
IMPERIAL NEB   CLOUDY    49  32  52 W15       29.70R
MCCOOK NEB     MOCLDY    50  43  77 S6        29.66S
AKRON CO       CLOUDY    47  23  38 NW26G33   29.79R
BURLINGTON CO  MOCLDY    49  34  56 NW25G37   29.74R
LIMON CO       CLOUDY    40  30  67 NW9       29.81R
$$

...UNOFFICIAL OBSERVATIONS...

CITY           SKY/WX    TMP DP  RH WIND       PRES   REMARKS
LENORA KS        N/A     53  32  45 S7          N/A
NORTON KS      CLEAR     54  45  71 S9        29.68F
SHARON SPRINGS   N/A     43  34  71 W10         N/A
TRIBUNE KS     MOCLDY    45  34  65 SW8       29.73R
TRENTON NEB      N/A     47  32  56 SW5         N/A
KIT CARSON CO    N/A     46  35  65 MISG        N/A
YUMA CO        MOCLDY    46  28  49 NW31G39   29.76R
$$



USA.gov is the U.S. government's official web portal to all federal, state and local government web resources and services.